Category: All categories

Week,Digital marketing: (India)
2015-02-22,49
2015-03-01,42
2015-03-08,51
2015-03-15,47
2015-03-22,48
2015-03-29,50
2015-04-05,57
2015-04-12,50
2015-04-19,51
2015-04-26,46
2015-05-03,53
2015-05-10,54
2015-05-17,56
2015-05-24,50
2015-05-31,56
2015-06-07,55
2015-06-14,53
2015-06-21,49
2015-06-28,50
2015-07-05,47
2015-07-12,45
2015-07-19,49
2015-07-26,49
2015-08-02,47
2015-08-09,46
2015-08-16,50
2015-08-23,44
2015-08-30,45
2015-09-06,51
2015-09-13,49
2015-09-20,51
2015-09-27,51
2015-10-04,54
2015-10-11,51
2015-10-18,47
2015-10-25,49
2015-11-01,48
2015-11-08,38
2015-11-15,56
2015-11-22,54
2015-11-29,54
2015-12-06,59
2015-12-13,57
2015-12-20,46
2015-12-27,48
2016-01-03,56
2016-01-10,51
2016-01-17,51
2016-01-24,51
2016-01-31,54
2016-02-07,57
2016-02-14,57
2016-02-21,58
2016-02-28,55
2016-03-06,57
2016-03-13,53
2016-03-20,47
2016-03-27,53
2016-04-03,55
2016-04-10,53
2016-04-17,56
2016-04-24,56
2016-05-01,62
2016-05-08,58
2016-05-15,56
2016-05-22,52
2016-05-29,56
2016-06-05,61
2016-06-12,61
2016-06-19,61
2016-06-26,60
2016-07-03,53
2016-07-10,56
2016-07-17,57
2016-07-24,58
2016-07-31,59
2016-08-07,53
2016-08-14,48
2016-08-21,59
2016-08-28,61
2016-09-04,59
2016-09-11,59
2016-09-18,59
2016-09-25,55
2016-10-02,51
2016-10-09,48
2016-10-16,54
2016-10-23,50
2016-10-30,50
2016-11-06,53
2016-11-13,54
2016-11-20,56
2016-11-27,60
2016-12-04,55
2016-12-11,54
2016-12-18,52
2016-12-25,49
2017-01-01,59
2017-01-08,55
2017-01-15,56
2017-01-22,65
2017-01-29,67
2017-02-05,60
2017-02-12,62
2017-02-19,65
2017-02-26,71
2017-03-05,62
2017-03-12,61
2017-03-19,69
2017-03-26,59
2017-04-02,64
2017-04-09,66
2017-04-16,67
2017-04-23,64
2017-04-30,63
2017-05-07,67
2017-05-14,63
2017-05-21,61
2017-05-28,61
2017-06-04,57
2017-06-11,60
2017-06-18,60
2017-06-25,55
2017-07-02,60
2017-07-09,62
2017-07-16,59
2017-07-23,65
2017-07-30,63
2017-08-06,57
2017-08-13,57
2017-08-20,57
2017-08-27,59
2017-09-03,69
2017-09-10,70
2017-09-17,66
2017-09-24,60
2017-10-01,58
2017-10-08,65
2017-10-15,45
2017-10-22,67
2017-10-29,63
2017-11-05,68
2017-11-12,71
2017-11-19,68
2017-11-26,68
2017-12-03,63
2017-12-10,69
2017-12-17,67
2017-12-24,55
2017-12-31,56
2018-01-07,66
2018-01-14,64
2018-01-21,60
2018-01-28,63
2018-02-04,64
2018-02-11,61
2018-02-18,66
2018-02-25,58
2018-03-04,63
2018-03-11,66
2018-03-18,66
2018-03-25,63
2018-04-01,65
2018-04-08,60
2018-04-15,58
2018-04-22,60
2018-04-29,59
2018-05-06,62
2018-05-13,58
2018-05-20,62
2018-05-27,61
2018-06-03,62
2018-06-10,63
2018-06-17,63
2018-06-24,66
2018-07-01,68
2018-07-08,64
2018-07-15,63
2018-07-22,68
2018-07-29,75
2018-08-05,73
2018-08-12,67
2018-08-19,67
2018-08-26,73
2018-09-02,81
2018-09-09,68
2018-09-16,73
2018-09-23,73
2018-09-30,70
2018-10-07,70
2018-10-14,63
2018-10-21,62
2018-10-28,64
2018-11-04,50
2018-11-11,67
2018-11-18,70
2018-11-25,75
2018-12-02,67
2018-12-09,62
2018-12-16,67
2018-12-23,61
2018-12-30,84
2019-01-06,73
2019-01-13,71
2019-01-20,72
2019-01-27,74
2019-02-03,73
2019-02-10,71
2019-02-17,72
2019-02-24,72
2019-03-03,71
2019-03-10,73
2019-03-17,68
2019-03-24,72
2019-03-31,74
2019-04-07,73
2019-04-14,64
2019-04-21,67
2019-04-28,70
2019-05-05,83
2019-05-12,80
2019-05-19,74
2019-05-26,84
2019-06-02,73
2019-06-09,75
2019-06-16,75
2019-06-23,78
2019-06-30,77
2019-07-07,81
2019-07-14,90
2019-07-21,89
2019-07-28,89
2019-08-04,84
2019-08-11,75
2019-08-18,100
2019-08-25,96
2019-09-01,89
2019-09-08,93
2019-09-15,93
2019-09-22,95
2019-09-29,82
2019-10-06,80
2019-10-13,87
2019-10-20,74
2019-10-27,72
2019-11-03,82
2019-11-10,84
2019-11-17,90
2019-11-24,88
2019-12-01,88
2019-12-08,91
2019-12-15,90
2019-12-22,86
2019-12-29,89
2020-01-05,97
2020-01-12,89
2020-01-19,94
2020-01-26,97
2020-02-02,92
2020-02-09,97
2020-02-16,97
